Starlink 30934

operational
NORAD ID: 58395 Int'l Des: 2023-178 Owner: SPXS Country: US Constellation: starlink
LEOCIRCULAR

关于 Starlink 30934

正在加载描述...

实时位置

正在加载3D地球...

即将过境

高度历史

Altitude vs Time

uPlot chart will show altitude changes over time

两行轨道根数

1 58395U 23178X 26062.12488980 .00001052 00000-0 47649-4 0 9999
2 58395 53.1621 31.8256 0001059 78.5042 281.6078 15.30196409128816
Epoch: Mar 3, 2026 • Age: 14 hours

当前状态

高度 485.8 km
速度 7.62 km/s
星下点 -32.68°S, 6.96°W
发射日期 Nov 20, 2023
运行时间 2.2 years
类型 internet

技术详情

分类 Payload
质量 730.00 kg
干质量 700.00 kg
总质量 730.00 kg
长度 0.30 m
直径 4.10 m
跨度 29.00 m
形状 Box + pan
制造商 SPXS
平台类型 Starlink V2M
阶段状态 In Orbit
所有者/国家 SPXS/US

大型星座

Loading constellations...